Location: Washington
(38.8950°N, 77.0370°W)
Time: 10:46:00
(UTC-04:00)

IDEFIX/ARIANE 42P - Visible Passes

Search period start: 23 April 2014 00:00
Search period end: 03 May 2014 00:00
Orbit: 785 x 804 km, 98.3° (Epoch: 22 April)

Date Brightness Start Highest point End Pass type
(mag) Time Alt. Az. Time Alt. Az. Time Alt. Az.
23 Apr 2.6 20:48:58 10° SSE 20:54:04 65° ENE 20:59:12 10° N visible
23 Apr 5.1 22:31:31 10° WSW 22:34:06 14° W 22:36:42 10° WNW visible
24 Apr 3.3 20:21:29 10° SE 20:26:08 35° ENE 20:30:48 10° N visible
24 Apr 4.4 22:01:29 10° SSW 22:05:46 26° W 22:10:04 10° NW visible
25 Apr 3.4 21:32:34 10° S 21:37:32 48° W 21:42:33 10° NNW visible
26 Apr 2.5 21:04:15 10° SSE 21:09:25 90° WSW 21:14:38 10° NNW visible
27 Apr 2.9 20:36:28 10° SE 20:41:25 49° ENE 20:46:24 10° N visible
27 Apr 4.9 22:17:46 10° SW 22:21:17 18° W 22:24:49 10° NW visible
28 Apr 4.0 21:48:20 10° SSW 21:52:59 34° W 21:57:40 10° NNW visible
29 Apr 2.9 21:19:42 10° S 21:24:48 64° W 21:29:57 10° NNW visible
30 Apr 2.6 20:51:37 10° SSE 20:56:44 70° ENE 21:01:54 10° N visible
30 Apr 5.2 22:34:38 10° WSW 22:36:50 13° W 22:39:02 10° WNW visible
01 May 3.2 20:24:03 10° SE 20:28:47 38° ENE 20:33:32 10° N visible
01 May 4.5 22:04:20 10° SSW 22:08:28 24° W 22:12:37 10° NW visible
02 May 3.5 21:35:18 10° S 21:40:13 44° W 21:45:11 10° NNW visible
